Regional Weather Roundup
Issued by NWS

Home | Current Version | Previous Version | Text Only | Print | Product List | Glossary On
Versions: 1 2 3 4 5 6 7 8 9 10 11 12 13 14 15 16 17 18 19 20 21 22 23 24 25 26 27 28 29 30 31 32 33 34 35 36 37 38 39 40 41 42 43 44 45 46 47 48 49 50
000
ASUS43 KMPX 051110
RWRMN
WEATHER ROUNDUP FOR MINNESOTA
NATIONAL WEATHER SERVICE TWIN CITIES/CHANHASSEN MN
500 AM CST FRI MAR 05 2021


NOTE: "FAIR" INDICATES FEW OR NO CLOUDS BELOW 12,000 FEET WITH NO
SIGNIFICANT WEATHER AND/OR OBSTRUCTIONS TO VISIBILITY. N/A MEANS
CURRENT SKY AND/OR WEATHER CONDITIONS ARE NOT AVAILABLE.

MNZ060>063-068>070-051200-
   Twin Cities Metro

CITY           SKY/WX    TMP DP  RH WIND       PRES   REMARKS
TWIN CITIES    CLOUDY    35  25  66 E3        30.38R
ST PAUL        CLOUDY    32  25  75 CALM      30.39R
CRYSTAL        CLOUDY    34  24  67 CALM      30.36R
BLAINE         CLOUDY    32  27  80 CALM      30.37R
LAKEVILLE      CLOUDY    32  28  86 CALM      30.36R
EDEN PRAIRIE   CLOUDY    35  26  69 E5        30.36R WCI  31
SOUTH ST PAUL  CLOUDY    32  27  82 CALM      30.38R
LAKE ELMO      CLOUDY    25  21  86 MISG      30.38S
$$
MNZ001>005-007-008-013>017-022>024-027-028-051200-
   Northwest Minnesota

CITY           SKY/WX    TMP DP  RH WIND       PRES   REMARKS
BEMIDJI        CLEAR     28  22  79 CALM      30.34R
HALLOCK        CLEAR     25  25 100 CALM      30.37R
ROSEAU         CLEAR     27  18  69 NE5       30.37R WCI  21
WARROAD        CLEAR     21  18  86 CALM      30.38R
THIEF RVR FALL CLEAR     26  24  92 CALM      30.36R
CROOKSTON      CLEAR     28  25  86 E5        30.36R WCI  23
FOSSTON        CLEAR     27  21  80 CALM      30.35R
DETROIT LAKES  MOCLDY    25  21  86 CALM      30.33R
MOORHEAD       CLEAR     34  23  64 E5        30.34R WCI  30
PARK RAPIDS    CLEAR     24  19  81 CALM      30.33R
MAHNOMEN       FAIR      30  22  71 E5        30.33S WCI  25
$$
MNZ006-009>011-018-025>026-051200-
   North Central Minnesota

CITY           SKY/WX    TMP DP  RH WIND       PRES   REMARKS
BAUDETTE       CLEAR     19  18  95 CALM      30.36R
FLAG ISLAND    CLEAR     16  12  86 N3        30.37S
INTL FALLS     CLEAR     17  14  88 CALM      30.36R
WASKISH        CLEAR     18  16  93 CALM      30.36R
BIG FORK       CLEAR     18  14  86 CALM      30.39S
LONGVILLE      PTCLDY    21  18  86 CALM      30.35S
GRAND RAPIDS   CLEAR     21  18  88 CALM      30.37S
CRANE LAKE     CLEAR     12  12 100 CALM      30.40R
ORR            CLEAR     18  16  93 CALM      30.34R
COOK           CLEAR     16  14  93 CALM      30.35S
WALKER         MOSUNNY   28  21  75 CALM      30.34S
$$
MNZ012-019>021-037-051200-
   Northeast Minnesota

CITY           SKY/WX    TMP DP  RH WIND       PRES   REMARKS
DULUTH         PTCLDY    21  17  84 NW7       30.34S WCI  12
ELY            CLEAR     19  18  93 CALM      30.36R
HIBBING        CLEAR     17  14  88 CALM      30.35S
EVELETH        CLEAR     17  15  92 CALM      30.37S
DULUTH HARBOR  CLEAR     25  21  86 CALM      30.39R
TWO HARBORS    CLEAR     23  16  74 CALM      30.35S
SILVER BAY     MOCLDY    19  18  93 CALM      30.36R
GRAND MARAIS     N/A     28  20  71 NE6       30.39R WCI  22
G MARAIS ARPRT CLEAR     21  12  68 N6        30.32R WCI  14
$$
MNZ029>031-032-039>041-046>048-054>057-064-051200-
   West Central Minnesota

CITY           SKY/WX    TMP DP  RH WIND       PRES   REMARKS
FERGUS FALLS   CLEAR     30  25  80 E6        30.29R WCI  24
WHEATON        CLOUDY    32  30  93 E3        30.34R
MORRIS         CLEAR     30  27  86 SE5       30.32S WCI  25
ALEXANDRIA     CLEAR     28  24  85 E5        30.32R WCI  23
ELBOW LAKE     FAIR      29  27  92 SE7       30.32S WCI  22
WADENA         CLEAR     27  19  74 NE3       30.33S
GLENWOOD       CLEAR     28  27  93 E6        30.32R WCI  22
APPLETON       PTCLDY    30  27  86 E3        30.32R
BENSON         CLEAR     30  27  86 S6        30.33S WCI  24
ORTONVILLE     FOG       28  28 100 CALM      30.31R VSB 1/2
MADISON        MOCLDY    30  28  93 CALM      30.32R VSB 3/4
WILLMAR        FAIR      30  27  86 E7        30.36S WCI  23
$$
MNZ033>034-036-042>043-049>051-058-059-051200-
   Central Minnesota

CITY           SKY/WX    TMP DP  RH WIND       PRES   REMARKS
ST CLOUD       CLOUDY    33  24  69 E3        30.35S
SAUK CENTRE    FAIR      29  24  80 E7        30.33S WCI  22
PAYNESVILLE    CLEAR     28  27  93 CALM      30.35R
PINE RIVER     CLEAR     25  19  80 CALM      30.37S
BRAINERD       PTCLDY    29  19  66 CALM      30.35S
STAPLES        PTCLDY    28  23  80 CALM      30.34R
LONG PRAIRIE   FAIR      28  23  80 CALM      30.33S
LITTLE FALLS   PTCLDY    32  21  64 CALM      30.35R
CAMP RIPLEY    FAIR      24  21  89 CALM      30.35S
LITCHFIELD     PTCLDY    30  28  93 E3        30.35S
BUFFALO        CLOUDY    33  27  78 MISG      30.37S
MAPLE LAKE       N/A     34  28  80 CALM      30.37
HUTCHINSON     CLOUDY    31  28  90 CALM      30.36S
$$
MNZ037-044-045-052-053-051200-
   East Central Minnesota

CITY           SKY/WX    TMP DP  RH WIND       PRES   REMARKS
PRINCETON      CLOUDY    30  25  80 CALM      30.37S
MORA           CLOUDY    27  23  86 CALM      30.39R
CAMBRIDGE      CLOUDY    30  19  64 CALM      30.38R
RUSH CITY      CLOUDY    27  21  79 CALM      30.38R
MOOSE LAKE     CLOUDY    21  19  93 CALM      30.36R
HINCKLEY       CLOUDY    28  23  80 CALM      30.38R
CLOQUET        CLOUDY    25  21  86 CALM      30.34S
$$
MNZ071>073-080-081-089-090-097-098-051200-
   Southwest Minnesota

CITY           SKY/WX    TMP DP  RH WIND       PRES   REMARKS
MONTEVIDEO     CLEAR     30  27  86 S8        30.32R WCI  23
GRANITE FALLS  CLEAR     31  28  90 E5        30.34R WCI  26
CANBY          FOG       27  26  99 CALM      30.31S VSB 1/2
MARSHALL       CLEAR     26  25  96 SE3       30.32R
REDWOOD FALLS  CLEAR     30  26  85 E6        30.34R WCI  24
OLIVIA         CLEAR     30  27  86 E3        30.34R
PIPESTONE      CLEAR     30  28  93 SE3       30.28R FOG
WINDOM         CLEAR     30  25  80 S3        30.30R
WORTHINGTON    CLEAR     26  24  92 CALM      30.31R
JACKSON        MOCLDY    30  27  86 S5        30.31R WCI  25
TRACY          CLEAR     31  24  74 CALM      30.30R
SLAYTON        CLEAR     29  26  89 S3        30.30S
$$
MNZ065>067-074>077-082>085-091>093-051200-
   South Central Minnesota

CITY           SKY/WX    TMP DP  RH WIND       PRES   REMARKS
MANKATO        CLOUDY    32  27  81 E3        30.36R
NEW ULM        CLOUDY    30  25  80 CALM      30.35R
ST JAMES       CLOUDY    30  28  93 CALM      30.33R
GLENCOE        CLOUDY    33  28  80 CALM      30.35R
FARIBAULT        N/A     34  27  75 CALM      30.36R
OWATONNA       CLOUDY    32  25  74 CALM      30.35R
WASECA         CLOUDY    32  27  80 E5        30.35R WCI  27
ALBERT LEA     CLOUDY    30  25  80 SE3       30.33R
$$
MNZ078>079-086>088-094>096-051200-
   Southeast Minnesota

CITY           SKY/WX    TMP DP  RH WIND       PRES   REMARKS
ROCHESTER      CLOUDY    30  22  72 SE7       30.34S WCI  23
RED WING       CLOUDY    28  25  86 CALM      30.38R
STANTON        CLOUDY    32  28  86 NE3       30.36R
DODGE CENTER   CLOUDY    30  25  80 CALM      30.34S
WINONA         CLOUDY    23  23 100 CALM      30.40S
AUSTIN         CLOUDY    32  27  80 SE3       30.34R
PRESTON        MOCLDY    29  22  76 CALM      30.35R
$$
ABBREVIATIONS USED IN REMARKS
   TC - TEMPERATURES IN CELSIUS
  WCI - WIND CHILL INDEX
   HX - HEAT INDEX
  VSB - VISIBILITY
$$




USA.gov is the U.S. government's official web portal to all federal, state and local government web resources and services.